GFSSGP_con_mucape_093.txt.gz
CAPE
0 0 0 0 0 0 0 0 0 0 0 0 15 36 39 13 24 41 416 230 309 1460 1718 1511 1905 2015 2084 2094 2119 2061 2017 2027 2009 1996 1869 1726 1756 1818 1685 1566 1226 853 335 68 0 0 0 0 21
0 0 0 0 0 0 0 0 0 0 0 0 0 17 28 30 58 553 493 400 403 1664 1674 1206 1928 1944 1911 1890 1865 1852 1909 1934 1913 1883 1781 1714 1689 1651 1363 1199 876 471 127 0 0 0 0 0 0
0 0 0 0 0 1 5 0 0 0 0 0 0 0 5 31 43 143 447 938 747 1615 1579 1374 1983 1871 1796 1739 1718 1730 1762 1760 1806 1802 1735 1678 1616 1494 1311 1164 1013 353 39 0 0 0 0 0 0
0 0 0 0 0 0 0 0 0 0 0 0 0 0 0 3 39 218 869 1067 1092 1410 1322 1793 1910 1782 1655 1593 1554 1642 1669 1691 1741 1761 1703 1632 1546 1389 1259 1157 930 525 27 0 0 0 0 0 0
0 0 0 0 0 0 0 0 0 0 0 0 0 0 0 0 501 1123 1311 1240 1047 1328 1255 1567 1853 1772 1680 1470 1365 1531 1552 1530 1608 1689 1650 1578 1419 1271 1188 1014 715 503 150 36 0 0 0 0 0
0 0 0 0 0 0 0 0 0 0 0 0 0 0 0 0 170 1202 1381 1344 880 1366 1493 1473 1775 1719 1662 1564 1474 1507 1455 1495 1557 1587 1537 1464 1276 1117 1022 880 676 500 267 103 51 40 39 0 0
0 0 0 0 0 0 0 0 0 0 0 0 0 0 0 0 0 962 1403 1444 1026 1342 1672 1654 1260 1466 1685 1614 1465 1431 1401 1437 1475 1415 1343 1319 1189 1062 977 826 729 579 353 210 158 110 57 17 0
0 0 0 0 0 0 0 0 0 0 0 0 0 0 0 0 0 637 1027 1353 1087 1320 1545 1669 1501 1025 884 1104 1611 1484 1446 1485 1442 1441 1392 1221 1126 1054 971 738 700 636 490 363 275 138 71 42 15
0 0 0 0 0 0 0 0 0 0 0 0 0 0 0 0 0 391 648 972 1011 1071 1476 1618 1476 1416 972 804 1134 1466 1355 1493 1477 1339 1338 889 247 334 330 203 512 693 553 431 385 265 139 83 45
0 0 0 0 0 0 0 0 0 0 0 0 0 0 0 0 54 287 738 814 878 943 1308 1524 1687 1656 1287 838 1067 1026 924 839 752 663 656 535 418 409 190 223 362 637 604 455 412 387 217 79 0
0 0 0 0 0 0 0 0 0 0 0 0 0 0 0 0 0 437 858 836 849 793 1226 1407 1864 1861 1402 1049 1172 1262 1146 1198 1255 1226 1284 982 593 488 368 202 189 169 330 59 94 83 36 5 3
0 0 0 0 0 0 0 0 0 0 0 0 0 0 0 0 0 0 633 963 836 853 1302 1580 1925 2068 1818 1598 1407 1224 1165 1371 1389 1295 1396 1188 1027 739 480 343 180 267 103 131 116 30 53 120 149
0 0 0 0 0 0 0 0 0 0 0 0 0 0 0 0 0 0 12 519 968 1215 1246 1649 1870 2188 2265 2102 1785 1641 1506 1437 1293 1361 1373 1203 993 1000 666 517 359 187 115 83 93 56 91 222 303
0 0 0 0 0 0 0 0 0 0 0 0 0 0 0 0 0 0 0 0 46 1429 1691 1644 1961 2202 2289 2469 2530 2117 1866 1657 1623 1509 1483 1430 1194 1337 841 715 507 353 200 94 76 88 210 308 376
0 0 0 0 0 0 0 0 0 0 0 0 0 0 0 0 0 0 0 0 0 334 1751 1888 2147 2251 2308 2279 2544 2547 2197 1892 1803 1668 1619 1399 1289 1443 1127 867 683 441 301 207 168 243 304 314 360
0 0 0 0 0 0 0 0 0 0 0 0 0 0 0 0 0 0 0 0 7 13 925 1988 1701 1924 2106 2080 2367 2235 2116 1995 1935 1781 1652 1336 1760 1693 1279 1024 770 575 330 277 302 393 467 507 583
0 0 0 0 0 0 0 0 0 0 0 0 0 0 0 0 0 0 0 0 0 9 436 1662 2090 1916 2213 2278 2077 2166 2279 1946 1863 1933 1789 1931 1768 1607 1697 1341 901 659 482 317 310 388 536 690 963
0 0 0 0 0 0 0 0 0 0 0 0 0 0 0 0 0 0 0 0 0 0 66 989 2021 2193 1970 1892 1871 1758 1808 1802 1826 1832 1855 1900 1941 1537 1513 1172 1070 755 576 456 390 506 630 807 1008
0 0 0 0 0 0 0 0 0 0 0 0 0 0 0 0 0 0 0 0 0 0 0 223 1155 2351 2173 1884 1626 1736 1657 1673 1677 1613 1519 1568 1402 1310 1349 1126 827 616 655 745 789 782 1009 1067 893
0 0 0 0 0 0 0 0 0 0 0 0 0 0 0 0 0 0 0 0 0 0 0 0 146 1190 2173 2150 2287 2013 2117 1990 1826 1691 1590 1442 1353 1401 1275 884 979 906 978 974 1098 1089 1116 1212 1137
0 0 0 0 0 0 0 0 0 0 0 0 0 0 0 0 0 0 0 0 0 0 0 0 44 506 1595 2404 2339 2205 2432 2304 2231 2142 1951 1916 1706 1762 1599 1299 1104 1608 1983 1706 1482 1188 982 936 1152
0 0 0 0 0 0 0 0 0 0 0 0 0 0 0 0 0 0 0 0 0 0 0 0 52 203 511 1919 2504 2718 2426 2473 2455 2665 2465 2348 2245 2218 2103 1766 1696 1909 2038 1449 840 591 691 522 445
0 0 0 0 0 0 0 0 0 0 0 0 0 0 0 0 0 0 0 0 0 0 0 0 0 171 436 1171 2540 2868 2898 2671 2742 2793 2970 2970 2716 2549 2499 2566 2454 2316 1639 1212 866 511 201 19 23
0 0 0 0 0 0 0 0 0 0 0 0 0 0 0 0 0 0 0 0 0 0 0 0 0 27 370 827 1752 3074 3315 2864 2138 2336 2730 2802 2652 2587 2497 2376 2502 1687 1244 1191 829 618 770 232 202
0 0 0 0 0 0 0 0 0 0 0 0 0 0 0 0 0 0 0 0 0 0 0 0 0 0 76 481 1336 2074 3041 2466 2413 2080 2178 1860 1666 1573 1845 2196 2068 1723 1493 1280 1199 937 598 371 408
0 0 0 0 0 0 0 0 0 0 0 0 0 0 0 0 0 0 0 0 0 0 0 0 0 0 0 167 731 1126 1626 2145 2223 1694 943 954 831 998 1386 1485 1788 2037 2047 1918 1487 906 572 503 453
0 0 0 0 0 0 0 0 0 0 0 0 0 0 0 0 0 0 0 0 0 0 0 0 0 4 14 71 296 408 813 659 491 654 831 625 630 469 680 724 815 808 1618 2245 2101 1494 1339 1222 1014
0 0 0 0 0 0 0 0 0 0 0 0 0 0 0 0 0 0 0 0 0 0 0 0 0 3 59 184 335 400 537 620 645 719 776 811 786 809 915 977 1300 1288 1091 1619 2346 2213 1933 1620 1360
0 0 0 0 0 0 0 0 0 0 0 0 0 0 0 0 0 0 0 0 0 19 11 11 56 57 107 226 425 460 472 483 562 770 961 1146 1187 1108 1280 1395 1497 1597 1672 1690 1860 1899 1756 1753 1666
0 0 0 0 0 0 0 0 0 0 0 0 0 0 0 0 0 0 0 0 11 19 9 11 26 71 50 162 79 169 79 272 675 893 980 1173 1126 1144 1289 1424 1228 864 936 1184 947 852 649 731 732

GFSSGP_con_mucape_096.txt.gz
CAPE
0 0 0 0 0 0 8 0 0 0 0 0 0 96 66 68 169 652 1022 226 150 887 1837 1457 2158 2367 2468 2540 2462 2243 1954 1785 1766 1788 1650 1697 1843 1880 1796 1699 1327 898 394 76 0 0 0 44 169
0 0 0 0 0 0 50 0 0 0 0 0 0 1 51 80 186 744 764 287 487 1018 1875 1216 2039 2260 2401 2190 2360 2151 2044 1960 1956 1948 1794 1817 1874 1836 1615 1549 1121 609 178 18 0 0 1 35 255
0 0 0 0 0 1 11 0 0 0 0 0 0 0 0 27 27 623 890 549 614 1133 1427 1365 2032 2077 2244 2271 2226 2144 2123 2044 2079 2082 1968 1925 1875 1783 1625 1479 1194 453 92 0 0 0 0 0 4
0 0 0 0 0 0 0 0 0 0 0 0 0 0 0 0 37 708 837 768 940 989 1056 1631 1976 1953 2037 1955 2105 2107 2116 2097 2119 2124 1972 1850 1758 1626 1451 1355 1106 735 71 0 0 0 0 0 0
0 0 0 0 0 0 0 0 0 0 0 0 0 0 0 0 818 1246 1031 897 1130 972 903 1852 1946 1923 1933 1862 1798 1977 2004 1979 2007 2005 1899 1765 1663 1457 1348 1295 993 638 152 24 0 0 5 0 0
0 0 0 0 0 0 0 0 0 0 0 0 0 0 0 0 232 1411 1402 1487 1053 982 960 1461 1688 1806 1749 1830 1806 1764 1728 1782 1853 1853 1798 1680 1501 1342 1287 1192 943 673 313 103 16 9 19 8 0
0 0 0 0 0 0 0 0 0 0 0 0 0 0 0 0 0 896 1690 1680 1105 962 1066 1668 1097 1268 1625 1652 1665 1602 1556 1583 1676 1647 1568 1537 1310 1205 1115 1025 864 657 461 301 123 30 30 27 6
0 0 0 0 0 0 0 0 0 0 0 0 0 0 0 0 0 33 1445 1675 1092 900 900 1608 1258 779 666 761 1657 1600 1554 1606 1593 1577 1491 1409 1116 983 893 809 743 512 341 245 135 56 40 28 22
0 0 0 0 0 0 0 0 0 0 0 0 0 0 0 0 0 12 570 1531 1227 793 893 1275 1263 996 751 648 1006 1450 1410 1534 1617 1470 1429 1018 354 259 193 88 727 443 292 192 148 95 75 25 41
0 0 0 0 0 0 0 0 0 0 0 0 0 0 0 0 0 4 237 890 1306 994 810 1160 1404 1285 979 596 1033 784 585 508 487 559 860 800 290 101 42 112 371 315 273 224 201 168 116 29 0
0 0 0 0 0 0 0 0 0 0 0 0 0 0 0 0 0 0 82 277 1024 1126 1063 1146 1798 1886 1556 853 980 858 681 557 440 451 753 792 287 317 247 150 192 82 237 27 49 30 2 0 0
0 0 0 0 0 0 0 0 0 0 0 0 0 0 0 0 0 0 0 359 894 1223 1336 1418 1833 2326 2542 1403 1103 1070 735 739 680 691 921 1051 656 500 315 118 68 95 61 32 61 25 25 57 192
0 0 0 0 0 0 0 0 0 0 0 0 0 0 0 0 0 0 0 0 388 887 1431 1803 1842 2462 2529 2332 1599 1657 1592 1046 1117 1133 1362 1057 784 949 522 346 238 162 75 79 94 42 50 155 511
0 0 0 0 0 0 0 0 0 0 0 0 0 0 0 0 0 0 0 0 19 632 1329 1846 2199 2558 2544 2538 2525 2056 1890 1614 1509 1359 1336 1679 1342 1547 798 700 527 304 178 104 75 67 105 334 670
0 0 0 0 0 0 0 0 0 0 0 0 0 0 0 0 0 0 0 0 0 0 187 1929 2520 2715 2930 3064 3001 2893 2217 1905 1687 1695 2348 1993 2073 1708 1548 983 810 528 500 388 341 264 339 650 765
0 0 0 0 0 0 0 0 0 0 0 0 0 0 0 0 0 0 0 0 0 0 0 718 1660 2175 3102 3074 3107 2970 2436 2234 1921 1871 2072 2342 2618 2098 2191 1357 1180 1062 1032 652 412 307 369 538 756
0 0 0 0 0 0 0 0 0 0 0 0 0 0 0 0 0 0 0 0 0 0 0 110 788 1905 2624 3371 3211 3106 3355 2756 2283 2167 2337 2600 1891 1975 2646 2180 1521 1835 1127 877 669 437 396 373 662
0 0 0 0 0 0 0 0 0 0 0 0 0 0 0 0 0 0 0 0 0 0 0 9 325 2356 2793 3267 3564 2992 2691 2587 2411 2308 2347 2635 2368 2286 2572 2288 2244 2155 1175 1173 964 924 520 425 328
0 0 0 0 0 0 0 0 0 0 0 0 0 0 0 0 0 0 0 0 0 0 0 41 75 1936 2914 3057 3302 3189 2908 2731 2571 2426 2519 2371 2359 2402 3329 2234 2325 1754 1441 1811 1656 1082 843 548 1024
0 0 0 0 0 0 0 0 0 0 0 0 0 0 0 0 0 0 0 0 0 0 0 16 176 676 2415 2870 3018 2981 2911 2738 2682 2524 2845 2765 2722 2641 2523 2636 2375 1987 1530 1464 1241 1327 763 1109 1617
0 0 0 0 0 0 0 0 0 0 0 0 0 0 0 0 0 0 0 0 0 0 0 0 51 396 947 2766 2830 3098 2937 2916 2796 2852 2985 3016 2954 2812 2559 2424 2356 1919 1478 1335 1622 2054 2188 1903 1625
0 0 0 0 0 0 0 0 0 0 0 0 0 0 0 0 0 0 0 0 0 0 0 0 0 121 430 995 2242 3825 2903 2607 2512 3099 2949 3179 3211 2998 2630 2421 2449 2602 2085 1899 2213 2194 2265 2249 1698
0 0 0 0 0 0 0 0 0 0 0 0 0 0 0 0 0 0 0 0 0 0 0 0 0 13 237 700 1266 2175 3353 2410 2205 2411 3531 4180 4044 3221 2589 2603 2591 2130 1917 1921 2386 2522 2309 1504 954
0 0 0 0 0 0 0 0 0 0 0 0 0 0 0 0 0 0 0 0 0 0 0 0 0 84 191 402 886 1812 3031 3134 2125 2453 2650 2929 3403 3644 3483 3269 3536 3607 4012 3517 3089 2158 2455 1850 1186
0 0 0 0 0 0 0 0 0 0 0 0 0 0 0 0 0 0 0 0 0 0 0 0 0 20 157 226 436 923 2003 3360 4148 3850 3130 3382 2979 4397 4030 3982 3980 3673 3841 3231 2236 2216 2431 1974 1691
0 0 0 0 0 0 0 0 0 0 0 0 0 0 0 0 0 0 0 0 0 0 0 0 0 7 173 265 314 582 971 1707 2583 3541 2946 2855 2908 3483 3653 3923 3670 3599 3386 3065 2837 2545 2350 2312 1887
0 0 0 0 0 0 0 0 9 10 0 0 0 0 0 0 0 0 0 0 0 0 0 0 0 53 115 322 415 505 772 1893 2457 2822 3496 3304 3521 2710 2916 3314 3417 3398 3244 3061 3143 2614 2535 2342 2134
0 0 0 0 0 0 0 0 0 0 9 7 0 2 0 0 0 0 0 0 0 0 0 13 34 39 112 247 549 532 783 1259 1910 2305 2163 1892 1333 798 1111 1336 1563 1717 1894 2332 2811 2860 2654 2801 2201
0 0 0 0 0 0 0 0 0 0 6 16 3 0 0 0 0 0 0 2 1 0 0 12 50 58 93 87 453 691 781 841 922 1078 965 901 974 811 657 639 674 805 1027 1351 1817 2076 2170 2294 2522
0 0 0 0 0 0 0 0 0 17 31 20 10 19 1 0 0 3 2 13 14 5 0 5 35 70 213 117 108 206 542 811 881 1007 1124 1131 1131 962 775 839 903 930 950 1276 1442 1374 1292 1651 1882

GFSSGP_con_mucape_102.txt.gz
CAPE
0 0 0 0 0 0 0 0 1 0 0 0 0 0 0 291 1114 1715 1149 492 1353 1231 2016 2291 2715 2744 2562 2320 2235 1888 1695 1717 1712 1670 1726 1812 1862 1798 1866 1788 1621 1148 484 198 32 31 89 192 343
0 0 0 0 0 0 0 34 19 3 0 0 0 0 11 144 742 796 183 656 1312 1281 1738 2030 2717 2735 2705 2367 2215 1895 1764 1814 1795 1751 1792 1847 1897 1737 1592 1643 1378 742 205 3 0 25 130 179 317
0 0 0 0 0 0 1 2 21 0 0 0 0 0 7 99 597 1029 647 768 1227 1220 1368 2347 2720 2695 2691 2560 2252 1988 1842 1879 1895 1859 1887 1838 1813 1771 1651 1470 1165 494 53 0 0 52 256 326 279
0 0 0 0 0 0 1 2 7 0 0 0 0 0 0 174 460 939 572 469 1054 906 1127 2154 2537 2580 2660 2619 2385 2087 1974 1988 2006 1944 1941 1896 1725 1690 1631 1423 1038 559 51 0 8 59 106 175 230
0 0 0 0 0 0 0 0 0 0 0 0 0 0 37 210 440 537 566 663 709 939 2060 1942 2409 2506 2567 2603 2451 2249 2105 2113 2080 2069 1982 1870 1779 1596 1464 1257 888 508 58 0 0 8 0 0 0
0 0 0 0 0 0 0 0 0 0 0 0 0 0 56 148 182 219 414 671 720 1218 2221 1785 2207 2426 2424 2496 2413 2258 2113 2092 2171 2125 1999 1906 1672 1410 1215 1073 840 546 104 0 0 0 0 0 0
0 0 0 0 0 0 0 0 0 0 0 0 0 0 1 24 322 448 438 681 786 1073 2300 1754 1283 2030 2301 2260 2229 2167 2057 2045 2074 1989 1919 1793 1542 1324 1156 984 751 461 217 90 47 16 0 0 0
0 0 0 0 0 0 0 1 0 0 0 0 0 0 0 0 0 34 439 455 455 495 1868 1484 1212 1140 1583 1830 2180 2079 1995 1991 1942 1909 1820 1632 1431 1256 1111 1006 754 514 235 142 89 36 1 0 0
0 0 0 0 0 0 0 0 0 0 0 0 0 0 0 0 0 0 32 390 377 449 1473 1267 608 831 813 1013 1776 1943 1938 1988 1897 1858 1762 1284 856 880 722 456 691 716 456 293 229 143 76 60 82
0 0 0 0 0 0 0 0 0 0 0 0 0 0 0 0 0 0 0 205 350 361 682 1392 909 839 607 348 1474 1578 1658 1691 1626 1531 1525 1135 722 865 294 278 848 797 607 473 420 349 279 165 0
0 0 0 0 0 0 0 0 0 0 0 0 0 0 0 0 0 0 0 4 177 468 395 1366 1967 1573 905 582 1641 1006 800 1076 1391 1544 1660 1265 689 813 362 478 240 387 585 171 287 240 90 0 0
0 0 0 0 0 0 0 0 0 0 0 0 0 0 0 0 0 0 0 0 18 372 346 1196 2219 2444 1873 1279 1585 1473 621 579 599 645 1206 1293 1009 886 440 485 182 231 159 28 48 20 22 10 52
0 0 0 0 0 0 0 0 0 0 0 0 0 0 0 0 0 0 0 0 0 19 1117 912 1760 3113 2431 3190 3198 1907 1041 810 597 726 690 847 1122 1404 791 402 483 393 131 73 48 142 133 352 312
0 0 0 0 0 0 0 0 0 0 0 0 0 0 0 0 0 0 0 0 5 131 1661 1334 1118 1482 3058 3058 3741 4224 2168 1411 945 888 715 1045 1770 1194 1107 1234 665 533 176 255 158 481 519 412 252
0 0 0 0 0 0 0 0 0 0 0 0 0 0 0 0 0 0 0 0 0 2 686 885 1131 391 18 3455 3748 3600 3442 2091 1748 1120 1346 1292 1436 1978 1480 1064 1436 870 1180 1134 745 893 994 950 743
0 0 0 0 0 0 0 0 0 0 0 0 0 0 0 0 0 0 0 0 0 0 669 955 864 1365 2436 3840 3610 3339 2861 3092 2045 2517 2166 1841 1451 1806 2325 1430 987 1120 1698 1242 976 706 680 545 484
0 0 0 0 0 0 0 0 0 0 0 0 0 0 0 0 0 0 0 0 0 49 406 399 925 769 3125 3949 3825 3835 3672 3330 3180 2364 2412 2727 2131 1891 2222 1422 1189 1425 1178 1174 917 1150 593 507 654
0 0 0 0 0 0 0 0 0 0 0 0 0 0 0 0 0 0 0 0 0 0 4 70 218 791 1294 1701 4202 3643 3546 3527 3747 3222 2552 3102 2867 2397 2160 2191 1728 1557 1160 1073 1130 968 1004 855 909
0 0 0 0 0 0 0 0 0 0 0 0 0 0 0 0 0 0 0 0 7 5 66 333 538 974 1269 1233 1778 3639 3061 3149 3456 3370 3911 2860 2949 3077 2827 2728 2457 2915 1651 1394 1309 1105 1757 1486 1623
0 0 0 0 0 0 0 0 0 0 0 0 0 0 0 0 0 0 6 85 52 1 20 384 703 1108 1454 1475 1516 1251 2528 2974 2815 3401 3502 3232 3479 3213 3585 3267 2731 2816 2841 2485 2326 1961 1555 2045 1332
0 0 0 0 0 0 0 0 0 0 0 0 0 0 0 0 0 8 38 63 30 29 101 45 349 581 1066 1364 1041 1090 2891 3095 2276 3166 3986 3938 3624 3450 3464 3624 3087 2750 2710 2058 2513 2562 2097 1586 1637
0 0 0 0 0 0 0 0 0 0 1 0 0 0 0 0 0 9 13 9 11 0 0 1 317 724 272 981 849 1597 1548 1315 2136 2346 2947 3331 3614 3382 3449 3392 3371 2893 2982 2142 2421 2308 2292 1748 1374
0 0 0 0 0 0 0 0 0 0 0 0 7 0 1 0 0 0 0 0 0 0 0 2 89 266 538 1041 1471 1008 822 670 1142 1555 1999 2706 3455 2898 3160 3215 3108 3432 3151 2967 2630 2595 2483 1978 1460
0 0 0 0 0 0 0 0 0 0 3 8 25 0 0 1 0 0 0 0 0 0 0 48 126 79 615 473 832 1357 1422 1150 1033 1149 1430 1598 2383 2905 2485 2898 3173 3145 3203 3070 2745 2794 2553 2172 1658
0 0 0 0 0 0 0 0 0 57 1 0 0 0 0 0 0 0 0 0 0 0 1 13 23 58 179 143 257 732 1036 1580 1304 1263 1134 1230 1437 1960 2308 2314 2641 3128 3270 3173 3020 2691 2504 2422 2077
0 0 0 0 0 0 7 0 1 10 1 0 0 0 0 0 0 0 0 0 0 6 30 23 1 30 73 108 153 766 1017 511 568 739 1039 1062 908 895 1242 1591 2021 2324 2849 2923 3223 2632 2918 2759 2567
8 0 7 0 0 0 0 0 0 9 16 8 0 0 0 0 0 0 0 0 2 12 59 65 72 104 100 177 211 542 281 911 896 1108 1044 913 1301 1894 1123 1415 2176 1189 75 864 2868 2704 2580 2305 2527
7 0 0 0 0 0 0 0 22 42 8 0 0 2 6 4 0 0 0 0 0 1 43 108 75 58 47 74 155 139 178 137 532 680 1079 1271 1442 1571 2071 2292 1932 1405 1072 1226 2717 2552 2307 2002 1488
10 0 0 0 0 0 0 0 95 5 8 1 1 4 4 1 0 1 0 0 0 4 5 90 71 60 55 42 112 117 119 188 242 606 484 709 658 1358 1782 2009 2339 2232 2116 2022 1816 1749 1416 827 593
30 45 35 26 0 65 0 0 48 91 8 58 0 31 5 13 1 0 0 1 1 0 2 12 142 45 33 47 62 91 146 283 309 323 304 200 288 563 590 619 1396 2085 1891 1470 495 471 849 873 785

GFSSGP_con_mucape_105.txt.gz
CAPE
0 0 0 0 0 0 0 0 3 0 0 0 0 0 699 1014 1427 769 1007 1447 1577 2021 2314 2275 2190 2215 2105 1968 1807 1619 1561 1586 1559 1612 1623 1709 1834 1875 1729 1576 1316 1087 409 131 12 26 89 199 262
0 0 0 0 0 0 0 0 25 0 0 0 0 26 481 880 972 927 1152 1425 1556 1831 2033 2049 2236 2133 2135 2038 1738 1557 1618 1648 1561 1618 1654 1709 1693 1777 1711 1568 1300 713 92 5 0 42 115 274 357
0 0 0 0 0 0 0 0 28 1 0 0 0 15 111 860 864 734 1219 1347 1377 1396 1814 2264 2373 2172 2126 2064 1738 1613 1666 1662 1625 1671 1728 1749 1644 1599 1536 1415 1106 470 1 0 0 85 369 390 313
0 0 0 0 0 0 0 0 6 1 0 0 0 14 135 643 787 866 1155 1096 1094 1201 1873 2431 2442 2337 2157 2071 1854 1676 1764 1754 1717 1766 1781 1742 1664 1540 1427 1311 969 575 16 0 0 191 432 526 417
0 0 0 0 1 0 0 0 0 4 0 0 0 101 276 588 616 643 1046 899 833 1347 1766 2246 2413 2458 2449 2290 2002 1829 1811 1773 1765 1834 1859 1744 1597 1472 1384 1201 858 536 121 0 0 19 12 9 0
0 0 0 0 0 0 0 0 12 0 0 0 0 87 186 275 404 447 707 920 1010 1710 1694 1919 2359 2388 2383 2388 2142 1917 1817 1803 1763 1797 1827 1758 1543 1396 1302 1160 862 571 114 37 0 0 0 0 0
0 0 0 0 0 0 0 0 22 0 1 0 0 114 224 294 257 393 582 677 1834 1735 1393 1629 1981 2297 2399 2281 2139 1978 1856 1833 1776 1671 1637 1618 1460 1297 1214 1075 899 560 154 66 23 0 0 0 0
0 0 0 0 0 0 0 0 0 19 7 3 0 0 15 50 400 521 557 1638 1760 1806 1302 1279 1661 1989 2043 2093 2230 2071 1971 1912 1793 1711 1645 1528 1390 1249 1176 860 870 697 395 240 158 79 1 0 0
0 0 0 0 0 0 0 0 0 2 0 0 0 0 0 0 0 0 301 696 1839 1912 1480 1037 1206 1448 1610 1711 1976 2052 2123 2042 1851 1785 1666 1283 989 965 988 707 916 790 515 393 339 211 95 50 51
0 0 0 0 0 0 0 0 0 0 0 0 0 0 0 0 0 0 1 305 775 1770 1505 999 830 990 1094 1491 1626 1714 1734 1732 1571 1494 1436 986 716 666 675 573 957 891 660 507 478 414 296 234 0
0 0 0 0 0 0 0 0 0 0 0 0 0 0 0 0 0 0 0 0 411 1315 1161 954 878 593 490 535 1425 1370 1493 1546 1467 1386 1284 920 642 714 630 325 498 430 631 255 328 277 167 25 0
0 0 0 0 0 0 0 0 0 0 0 0 0 0 0 0 0 0 0 0 28 9 891 746 1043 716 437 287 943 825 1015 1250 1328 1376 1339 1038 835 533 576 316 200 217 252 100 65 56 18 5 0
0 0 0 0 0 0 0 0 0 0 0 0 0 0 0 0 0 0 0 0 2 30 945 913 807 525 765 563 723 588 516 712 805 1080 1375 1318 849 677 544 431 168 131 122 54 0 0 0 0 0
0 0 0 0 0 0 0 0 0 0 0 0 0 0 0 0 0 0 0 0 0 830 1309 1432 1603 1200 1245 1701 1422 1239 1050 890 733 499 626 1085 1047 539 715 430 225 141 110 92 0 0 0 25 12
0 0 0 0 0 0 0 0 0 0 0 0 0 0 0 0 0 0 0 0 0 78 1236 1702 1977 1668 1210 734 1885 2367 1853 1241 986 844 519 529 852 1067 725 744 320 364 382 231 28 0 17 198 136
0 0 0 0 0 0 0 0 0 0 0 0 0 0 0 0 0 0 0 0 0 0 596 770 963 774 867 213 1199 2498 2445 2349 1359 959 897 701 710 1174 1161 919 512 591 354 212 113 32 223 184 131
0 0 0 0 0 0 0 0 0 0 0 0 0 0 0 0 0 0 0 0 0 0 0 253 319 411 855 711 1725 2474 2532 2378 2404 1773 1208 1223 1048 956 1144 994 871 547 531 575 494 228 196 268 232
0 0 0 0 0 0 0 0 0 0 0 0 0 0 0 0 0 0 0 0 0 0 0 0 0 138 439 1330 2332 2917 2808 2640 2431 2373 2279 1619 1319 1192 1092 1073 1034 825 624 517 578 302 175 166 135
0 0 0 0 0 0 0 0 0 0 0 0 0 0 0 0 0 0 0 0 0 0 0 0 0 31 198 198 422 2405 2770 2785 2596 2939 2812 2274 1927 1679 1453 1421 1173 965 878 754 585 674 420 269 271
0 0 0 0 0 0 0 0 0 0 0 0 0 0 0 0 0 0 0 0 0 0 0 0 0 0 0 16 248 459 964 1775 2576 2847 2793 2874 2550 2447 2025 1724 1467 1119 1092 1109 824 742 657 534 773
0 0 0 0 0 0 0 0 0 0 0 0 0 0 0 0 0 0 0 0 0 0 0 0 0 0 0 1 24 10 56 524 1135 1840 2257 2521 2685 2485 2156 1903 1940 1572 1354 1408 1214 1034 921 755 986
0 0 0 0 0 0 0 0 0 0 0 0 0 0 0 0 0 0 0 0 0 0 0 0 0 0 0 0 0 0 0 5 55 681 1007 1079 2249 2441 2082 2024 1925 1778 1704 1526 1821 1522 1215 993 860
0 0 0 0 0 0 0 0 0 0 0 0 0 0 0 0 0 0 0 0 0 0 0 0 0 0 0 0 44 72 52 1 0 0 529 1073 890 991 2108 1957 1576 1265 818 939 1403 1436 1723 1546 1023
0 0 0 0 0 0 0 0 0 0 0 0 0 0 0 0 0 0 0 0 0 0 0 0 0 0 0 0 0 0 0 2 41 1 0 0 119 750 757 439 762 187 59 245 960 840 1430 1597 1420
0 0 0 0 0 0 0 0 0 0 5 6 0 0 0 0 0 0 0 0 0 0 0 0 0 0 0 0 0 0 0 0 0 24 8 0 0 0 0 421 900 506 36 492 813 1017 808 1359 1365
0 0 0 0 0 0 0 0 0 0 1 1 0 0 0 0 0 0 0 0 0 0 0 0 0 0 0 0 0 0 0 0 3 0 0 0 0 37 75 282 837 922 759 457 428 84 24 78 687
1 0 1 0 0 0 0 0 0 2 0 0 0 0 0 0 0 0 0 0 0 0 0 0 0 0 0 0 0 0 24 6 0 0 4 0 0 25 116 236 463 614 971 452 231 83 19 106 293
0 0 0 0 0 0 0 0 0 31 12 0 3 0 0 0 0 0 0 0 0 0 0 0 0 0 0 0 0 0 0 0 1 0 66 0 0 0 0 64 197 622 693 615 241 77 44 62 235
0 0 0 2 0 0 0 0 17 14 4 8 15 7 1 0 0 0 0 0 0 0 0 0 0 0 0 0 0 0 0 0 0 72 36 29 0 0 0 0 0 66 163 199 438 362 462 107 582
0 0 22 11 0 0 0 0 0 2 0 0 0 1 0 0 0 0 0 0 0 0 0 0 0 0 0 0 0 0 0 0 0 0 0 28 5 0 0 0 0 0 0 105 155 230 600 526 439

GFSSGP_con_mucape_108.txt.gz
CAPE
0 0 0 0 0 0 0 0 0 0 0 0 336 687 907 1209 1128 702 773 922 1944 1906 1984 2067 2157 2043 1903 1738 1657 1584 1451 1480 1480 1547 1683 1658 1528 1514 1484 1469 1446 1177 563 113 0 34 129 206 120
0 0 0 0 0 0 0 24 0 0 0 0 475 536 625 796 886 1102 1259 1627 1785 1948 1869 1788 2110 1949 1870 1693 1558 1504 1500 1492 1483 1537 1667 1708 1659 1588 1453 1333 1151 528 120 0 0 84 232 273 238
0 0 0 0 0 0 0 17 0 0 0 0 51 120 557 613 1101 955 1201 1558 1759 1774 1708 1770 2073 1879 1847 1687 1558 1516 1553 1508 1541 1579 1596 1555 1603 1573 1473 1340 1012 240 0 0 5 111 239 311 258
0 0 0 0 0 6 0 15 0 0 0 0 17 229 641 766 567 1056 1438 1433 1363 1556 1687 2226 2081 1944 1865 1713 1604 1589 1620 1561 1596 1629 1594 1512 1357 1395 1299 1157 854 416 0 0 26 238 357 280 197
0 0 0 0 0 3 0 0 0 0 0 0 81 273 700 764 1001 1312 1208 927 1163 1542 1848 2122 2176 2040 1952 1777 1681 1665 1626 1530 1575 1650 1615 1561 1441 1338 1262 1082 824 421 71 3 17 85 310 352 117
0 0 0 4 0 0 6 0 0 0 0 0 260 364 427 917 1063 1021 984 661 1313 1388 1756 2022 2293 2141 1954 1846 1682 1643 1613 1549 1553 1575 1600 1536 1383 1308 1242 1048 851 549 222 111 30 70 31 0 0
0 0 0 0 0 0 0 0 0 0 0 0 156 301 298 491 1004 1002 900 741 1413 1424 1395 1781 2014 2147 2212 1958 1728 1630 1618 1587 1570 1514 1454 1394 1332 1258 1182 1004 851 606 250 159 102 46 6 0 0
0 0 0 0 0 0 0 0 0 0 0 83 98 238 195 218 442 1030 1021 1061 1423 1323 1131 1467 1695 1977 1921 1882 1977 1793 1725 1715 1596 1543 1508 1436 1334 1218 1129 800 794 670 321 206 140 76 26 0 0
0 0 0 0 0 0 0 0 0 0 0 0 8 281 269 235 389 797 1369 1558 1603 1316 1012 1179 1459 1599 1605 1763 1945 1938 1963 1896 1702 1634 1577 1215 968 939 843 653 788 761 470 317 257 164 89 57 27
0 0 0 0 0 0 0 0 0 0 0 0 0 0 0 0 0 144 1355 1538 1629 1417 923 915 1142 1282 1452 1824 1721 1657 1791 1762 1547 1407 1353 1032 825 699 652 583 895 928 654 443 402 335 237 189 0
0 0 0 0 0 0 0 0 0 0 0 0 0 0 0 0 0 0 180 1384 1736 1613 1083 728 822 1031 1191 1401 1490 1641 1704 1612 1494 1388 1282 943 722 626 627 465 470 468 578 181 250 214 146 37 0
0 0 0 0 0 0 0 0 0 0 0 0 0 0 0 0 0 0 0 0 1268 1617 1470 1091 581 625 741 1186 1297 1331 1458 1559 1474 1343 1250 954 762 535 435 318 184 305 187 155 81 79 51 21 0
0 0 0 0 0 0 0 0 0 0 0 0 0 0 0 0 0 0 0 0 0 830 1282 1192 820 565 451 811 1018 1012 1134 1310 1239 1262 1240 1045 803 616 526 448 290 223 168 154 7 7 1 0 0
0 0 0 0 0 0 0 0 0 0 0 0 0 0 0 0 0 0 0 0 29 150 538 942 879 776 643 589 810 789 729 915 986 1079 1151 1173 940 791 648 554 578 406 118 88 36 0 0 0 0
0 0 0 0 0 0 0 0 0 0 0 0 0 0 0 0 0 0 0 0 0 670 774 789 792 964 959 1195 1037 810 817 821 778 786 882 1180 1127 944 738 698 558 615 437 145 36 76 2 0 0
0 0 0 0 0 0 0 0 0 0 0 0 0 0 0 0 0 0 0 0 0 837 1234 1193 1255 1012 1249 1203 1009 1457 1444 1578 1421 1261 946 781 923 1048 836 564 586 648 564 317 175 298 185 8 33
0 0 0 0 0 0 0 0 0 0 0 0 0 0 0 0 0 0 0 0 0 600 1450 1559 1654 1470 1110 1196 842 1220 2257 2194 2037 1635 1259 988 888 872 878 652 660 796 920 567 359 517 414 78 40
0 0 0 0 0 0 0 0 0 0 0 0 0 0 0 0 0 0 0 0 13 367 639 419 520 812 911 984 844 1232 2242 2185 2231 2133 2049 1781 1443 1310 1067 926 996 894 944 889 639 556 470 220 199
0 0 0 0 0 0 0 0 0 0 0 0 0 0 0 0 0 0 0 0 0 0 0 0 31 68 126 187 1023 1023 1635 1978 2064 2192 2352 2192 2243 2343 1941 1504 1317 1166 877 948 795 772 724 564 549
0 0 0 0 0 0 0 0 0 0 0 0 0 0 0 0 0 0 0 0 0 0 0 0 0 0 0 0 2 41 64 358 1092 1507 1882 2373 2283 2163 2237 2073 1874 1660 1256 985 870 639 613 628 580
0 0 0 0 0 0 0 0 0 0 0 0 0 0 0 0 0 0 0 0 0 0 0 0 0 0 0 0 0 0 0 0 5 390 709 953 1327 1717 1935 1759 1489 1332 1226 1115 890 827 624 465 526
0 0 0 0 0 0 0 0 0 0 0 0 0 0 0 0 0 0 0 0 0 0 0 0 0 0 0 0 0 0 0 0 0 0 0 39 636 1057 941 1110 1643 1634 1287 1122 877 915 784 612 438
0 0 0 0 0 0 0 0 0 0 0 0 0 0 0 0 0 0 0 0 0 0 0 0 0 0 0 0 0 0 0 0 0 0 0 0 0 87 364 281 467 1087 1329 1092 717 771 482 226 313
0 0 0 0 0 0 0 0 0 0 0 0 0 0 0 0 0 0 0 0 0 0 0 0 0 0 0 0 0 0 0 0 0 0 0 0 0 0 0 0 53 132 339 548 419 151 177 148 452
0 0 0 0 0 0 0 0 0 0 0 0 0 0 0 0 0 0 0 0 0 0 0 0 0 0 0 0 0 0 0 0 0 0 0 0 0 0 0 0 21 120 199 381 361 102 29 40 500
0 0 0 0 0 0 0 0 0 0 0 0 0 0 0 0 0 0 0 0 0 0 0 0 0 0 0 0 0 0 0 0 0 0 0 0 0 7 0 0 0 7 258 312 381 377 79 65 238
0 0 0 0 0 0 0 0 0 0 3 0 0 0 0 0 0 0 0 0 0 0 0 0 0 0 0 0 0 0 0 0 0 0 0 0 0 0 0 0 0 0 0 80 159 183 285 292 226
0 0 0 0 0 0 0 0 0 4 22 8 0 0 0 0 0 0 0 0 0 0 0 0 0 0 0 0 0 0 0 0 0 0 0 0 0 0 0 0 0 0 0 0 0 130 217 179 186
15 6 3 1 0 0 0 0 0 1 23 35 20 1 7 0 0 0 0 0 0 0 0 0 0 0 0 0 0 0 0 0 0 0 0 0 0 0 0 0 0 0 0 0 0 0 18 146 140
0 0 0 1 0 0 0 0 0 13 29 17 0 17 2 3 4 7 2 0 0 0 0 0 0 0 0 0 0 0 0 0 0 0 0 0 0 0 0 0 0 0 0 0 0 0 3 0 0

GFSSGP_con_mucape_111.txt.gz
CAPE
0 0 0 0 0 0 1 0 0 0 0 380 138 434 625 733 674 360 644 929 1343 1470 1731 1653 1979 1874 1760 1683 1482 1355 1273 1324 1337 1326 1341 1417 1491 1540 1510 1457 1451 1092 496 49 2 117 272 243 123
0 0 0 0 0 0 1 0 0 0 0 618 503 627 580 590 1029 932 889 1656 1365 1541 1691 1729 2005 1864 1730 1609 1406 1312 1264 1264 1393 1401 1360 1333 1354 1308 1189 1372 1161 618 209 15 36 169 300 212 140
0 0 0 0 0 0 9 0 0 0 1 0 111 345 511 708 1029 874 1184 1658 1617 1514 1541 1727 2015 1800 1680 1575 1434 1336 1301 1270 1413 1494 1428 1289 1351 1353 1264 1193 980 337 66 20 124 289 362 364 299
0 0 0 0 0 22 8 0 0 0 0 2 158 500 539 607 861 1080 1614 1694 1497 1412 1389 2013 1964 1802 1654 1568 1501 1424 1390 1362 1430 1380 1344 1300 1266 1380 1297 1141 804 469 102 52 224 393 523 534 383
0 0 0 0 0 16 30 0 0 0 0 62 315 677 658 987 1351 1386 1523 1390 1278 1349 1412 1756 1902 1874 1709 1622 1567 1518 1458 1414 1470 1526 1313 1240 1342 1290 1205 1042 688 418 318 124 189 498 840 823 567
0 0 0 0 0 6 33 0 0 0 0 328 539 574 523 1170 1226 1185 1076 1006 1187 1317 1564 1551 1905 1896 1695 1611 1594 1526 1407 1427 1476 1479 1447 1426 1336 1251 1164 1053 835 563 381 336 349 601 704 595 336
0 0 0 0 0 1 24 0 0 0 0 4 282 389 524 1074 1077 866 707 954 1186 1307 1462 1541 1572 1741 1837 1636 1572 1539 1463 1401 1437 1400 1339 1293 1211 1202 1190 1045 947 741 456 398 383 387 283 205 120
0 0 0 0 0 2 4 0 0 0 0 2 236 232 509 951 1115 819 610 964 1015 1129 1180 1447 1552 1606 1495 1398 1714 1636 1582 1529 1457 1431 1386 1304 1236 1191 1158 872 866 854 538 410 367 251 194 140 86
0 0 11 0 0 0 0 0 0 0 0 48 54 179 242 716 1073 947 858 1168 1136 1007 1018 1275 1416 1553 1377 1279 1447 1632 1785 1691 1565 1497 1459 1119 891 878 800 824 568 1010 721 478 389 305 214 140 98
0 0 0 0 0 0 0 0 0 0 0 0 153 228 245 508 1108 983 1004 1122 1096 1015 841 1059 1197 1361 1425 1543 1474 1356 1365 1448 1312 1204 1154 951 794 658 597 697 934 1054 1066 747 567 480 405 314 5
0 0 0 0 0 0 0 0 0 0 0 0 57 88 87 279 681 1098 987 1123 1199 1091 805 851 1065 1222 1222 1470 1584 1379 1334 1328 1264 1250 1090 961 774 662 761 595 610 656 775 532 367 281 226 108 28
0 0 0 0 0 0 0 0 0 0 0 0 0 0 0 0 0 98 1079 1169 1353 1384 1082 781 917 1076 1180 1408 1381 1059 1452 1328 1763 1353 1161 923 746 641 586 531 401 360 386 348 272 118 102 86 62
0 0 0 0 0 0 0 0 0 0 0 0 0 0 0 0 0 0 0 34 1110 1501 1479 1066 799 893 987 1128 1281 1134 1329 1245 1211 1143 1212 1041 723 604 587 586 440 408 293 242 182 66 39 17 4
0 0 0 0 0 0 0 0 0 0 0 0 0 0 0 0 0 0 0 0 5 331 1323 1429 1229 980 750 978 1100 1056 1139 1187 1224 1222 1190 1149 915 708 601 624 641 625 529 316 205 93 12 0 0
0 0 0 0 0 0 0 0 0 0 0 0 0 0 0 0 0 0 0 0 0 0 5 1115 1200 1264 1000 778 1011 823 819 924 1080 1145 1193 1219 1208 1043 887 795 773 761 750 646 518 274 85 16 0
0 0 0 0 0 0 0 0 0 0 0 0 0 0 0 0 0 0 0 0 0 68 271 404 761 1090 890 749 784 875 783 709 739 835 901 1120 1302 1247 1065 967 878 830 782 702 642 661 458 219 177
0 0 0 0 0 0 0 0 0 0 0 0 0 0 0 0 0 0 0 0 0 328 654 671 739 885 924 1052 855 992 1666 1201 1335 1609 1161 1007 1065 1064 1149 1013 922 819 688 638 647 641 623 420 300
0 0 0 0 0 0 0 0 0 0 0 0 0 0 0 0 0 0 0 0 0 584 1000 1085 1051 1083 1292 1049 1008 1087 1105 1450 1950 2080 2029 1571 1515 1257 1060 1078 1206 1094 839 770 725 800 876 608 422
0 0 0 0 0 0 0 0 0 0 0 0 0 0 0 0 0 0 0 0 24 814 1394 1460 1534 1496 1391 1224 1331 1336 1127 1326 1841 1904 1691 1808 1760 1751 1579 1672 1680 1742 1533 1282 1047 857 953 1014 685
0 0 0 0 0 0 0 0 0 0 0 0 0 0 0 0 0 0 0 0 104 737 1035 1307 1407 1515 1482 1352 1238 998 893 840 774 1156 926 717 677 914 1105 1243 1254 1401 1291 1289 1178 986 860 812 884
0 0 0 0 0 0 0 0 0 0 0 0 0 0 0 0 0 0 0 0 1 159 58 25 18 4 25 49 73 48 0 0 0 0 0 7 67 262 395 704 923 997 1138 1184 1143 987 905 751 584
0 0 0 0 0 0 0 0 0 0 0 0 0 0 0 0 0 0 0 0 0 0 0 0 0 0 0 0 0 0 0 0 0 0 0 0 0 4 0 5 204 752 933 1120 1190 1194 1037 813 532
0 0 0 0 0 0 0 0 0 0 0 0 0 0 0 0 0 0 0 0 0 0 0 0 0 0 0 0 0 0 0 0 0 0 0 0 0 0 0 0 0 0 122 847 1179 1164 984 782 754
0 0 0 0 0 0 0 0 0 0 0 0 0 0 0 0 0 0 0 0 0 0 0 0 0 0 0 0 0 0 0 0 0 0 0 0 0 0 0 0 0 0 24 38 147 328 392 501 497
0 0 0 0 0 0 0 0 0 0 0 0 0 0 0 0 0 0 0 0 0 0 0 0 0 0 0 0 0 0 0 0 0 0 0 0 0 0 0 0 0 0 0 0 46 53 35 138 184
0 0 0 0 0 0 0 0 0 0 0 0 0 0 0 0 0 0 0 0 0 0 0 0 0 0 0 0 0 0 0 0 0 0 0 0 0 0 0 0 0 0 0 0 0 32 66 32 30
0 0 0 0 0 0 0 0 0 0 0 0 0 0 0 0 0 0 0 0 0 0 0 0 0 0 0 0 0 0 0 0 0 0 0 0 0 0 0 0 0 0 0 0 0 0 2 66 111
2 0 0 0 0 0 0 0 0 0 0 0 0 0 0 0 0 0 0 0 0 0 0 0 0 0 0 0 0 0 0 0 0 0 0 0 0 0 0 0 0 0 0 0 0 0 0 0 0
7 2 1 0 0 0 0 0 0 0 0 2 8 6 7 0 6 8 7 0 0 0 0 0 0 0 0 0 0 0 0 0 0 0 0 0 0 0 0 0 0 0 0 0 0 0 0 0 0
0 0 1 0 0 0 0 0 4 0 12 3 1 9 7 25 6 0 0 0 0 0 0 0 0 0 0 0 0 0 0 0 0 0 0 0 0 0 0 0 0 0 0 0 0 0 0 0 0

GFSSGP_con_mucape_114.txt.gz
CAPE
0 0 0 0 0 0 0 0 0 0 2 555 340 208 246 556 292 200 629 781 1235 1345 1517 1245 1850 1766 1786 1601 1486 1398 1348 1407 1474 1538 1538 1564 1595 1614 1582 1567 1469 1149 587 172 79 176 281 307 274
0 0 0 0 0 0 0 0 5 0 0 113 401 680 530 454 956 822 789 1323 1160 1397 1475 1372 1850 1756 1661 1515 1360 1316 1328 1314 1321 1399 1482 1552 1575 1526 1383 1492 1369 828 394 70 185 374 475 345 258
0 0 0 0 0 0 14 8 25 0 0 0 39 316 445 504 1074 751 830 1250 1269 1407 1418 1399 1851 1750 1648 1470 1338 1241 1276 1261 1299 1361 1392 1348 1422 1393 1387 1426 1320 628 197 77 215 451 697 677 506
0 0 0 0 0 16 34 6 25 0 0 0 42 411 496 592 983 912 1530 1412 1189 1266 1368 1801 1818 1717 1669 1406 1421 1242 1235 1330 1378 1352 1346 1306 1262 1322 1304 1291 1037 704 149 116 291 713 900 916 862
0 0 0 0 16 42 63 25 5 0 0 0 439 567 475 997 1295 1643 1600 1321 1125 1173 1371 1695 1818 1716 1717 1577 1483 1316 1213 1272 1401 1470 1448 1456 1461 1366 1279 1153 816 600 466 287 381 711 981 969 891
0 0 0 3 19 27 27 13 0 0 0 59 380 638 647 1236 1478 1600 1488 1148 1076 1097 1486 1531 1694 1680 1637 1655 1523 1329 1163 1167 1302 1448 1499 1503 1452 1357 1300 1155 878 699 625 615 702 964 1079 943 761
0 0 0 3 4 4 1 0 0 0 0 0 489 480 423 1225 1216 1418 1216 1022 1057 1187 1333 1426 1436 1477 1606 1607 1499 1345 1229 1189 1244 1236 1278 1334 1301 1244 1214 1098 988 821 688 657 730 896 950 799 648
0 0 0 0 7 8 0 10 0 1 0 0 317 109 281 844 1024 999 889 1045 1081 1208 1112 1167 1228 1311 1219 1261 1639 1489 1378 1345 1338 1332 1294 1265 1199 1201 1221 933 948 924 687 589 589 596 479 342 266
0 0 0 0 0 0 0 2 0 0 0 1 207 0 89 1030 914 616 932 969 984 1081 1049 1081 1074 1162 1047 1022 1308 1585 1506 1525 1482 1477 1405 1069 804 793 779 824 661 1080 940 641 499 392 254 194 174
0 0 0 0 0 0 0 0 0 0 0 0 10 49 584 1183 998 658 802 838 857 933 950 1079 1121 1144 1033 977 1008 1202 1170 1288 1235 1126 1103 846 662 531 627 725 987 798 1111 922 604 486 399 352 70
0 0 0 0 0 0 0 0 0 0 2 0 36 193 418 1001 1153 822 721 756 675 684 696 980 1141 1225 1137 1181 1164 1185 1202 1325 1216 1071 934 908 656 641 755 519 580 725 682 673 394 318 257 208 76
0 0 0 0 0 0 0 0 0 0 0 0 24 0 12 670 1029 1013 892 869 751 720 691 821 1036 1210 1143 1316 1302 1063 1010 1102 912 1049 1080 912 740 596 600 577 426 380 374 376 329 195 118 99 79
0 0 0 0 0 0 0 0 0 0 0 0 0 0 0 0 0 295 871 944 1006 978 883 746 908 1086 1080 1249 1246 1259 1016 1034 929 973 1363 1036 749 589 539 585 527 457 394 359 268 160 101 64 31
0 0 0 0 0 0 0 0 0 0 0 0 0 0 0 0 0 0 0 1 580 1170 1209 1010 785 902 1035 1042 1161 1181 1055 1103 1084 1119 1088 1869 998 724 551 539 563 579 562 562 574 502 290 118 6
0 0 0 0 0 0 0 0 0 0 0 0 0 0 0 0 0 0 0 0 0 75 1080 1338 1295 1144 951 929 1126 1095 979 984 1111 1136 1151 1300 1419 1041 874 765 713 665 675 719 732 720 629 473 289
0 0 0 0 0 0 0 0 0 0 0 0 0 0 0 0 0 0 0 0 0 0 0 293 1154 1223 1217 1030 1010 1063 1017 973 1060 1110 1128 1127 1186 1209 1173 1142 1065 938 857 778 744 727 721 648 600
0 0 0 0 0 0 0 0 0 0 0 0 0 0 0 0 0 0 0 0 0 0 23 70 461 813 1086 1221 1206 891 858 752 739 748 770 856 975 1228 1249 1184 1088 1000 934 844 765 707 622 524 537
0 0 0 0 0 0 0 0 0 0 0 0 0 0 0 0 0 0 0 0 0 0 85 216 401 618 839 1225 1029 822 1182 1420 1493 1588 1756 1604 1632 1355 1058 1110 1050 1004 1016 1215 1141 1045 897 761 686
0 0 0 0 0 0 0 0 0 0 0 0 0 0 0 0 0 0 0 0 0 96 327 540 652 737 869 1032 859 967 903 968 1218 1697 1799 1558 1267 1312 1150 1147 1083 1036 984 1179 1280 1194 1044 1000 850
0 0 0 0 0 0 0 0 0 0 0 0 0 0 0 0 0 0 0 0 0 175 489 711 884 948 1078 1222 1210 1029 1111 1032 1058 831 790 862 703 460 546 746 674 714 886 1067 1111 1183 1084 1098 969
0 0 0 0 0 0 0 0 0 0 0 0 0 0 0 0 0 0 0 0 0 70 553 914 1207 1259 1302 1328 1261 1178 1217 1032 796 578 110 0 0 0 55 53 250 440 577 691 777 906 1068 1067 941
0 0 0 0 0 0 0 0 0 0 0 0 0 0 0 0 0 0 0 0 0 3 635 1111 1417 1625 1680 1673 1421 1311 1064 477 49 0 0 0 0 0 0 0 0 3 216 463 675 819 981 1030 1077
0 0 0 0 0 0 0 0 0 0 0 0 0 0 0 0 0 0 0 0 0 0 380 733 1021 1065 1089 993 523 116 0 0 0 0 0 0 2 15 32 28 2 0 0 0 323 539 851 1165 814
0 0 0 0 0 0 0 0 0 0 0 0 0 0 0 0 0 0 0 0 0 0 95 105 55 5 0 0 0 0 0 0 0 0 0 0 0 0 0 0 0 0 0 0 0 0 76 354 632
0 0 0 0 0 0 0 0 0 0 0 0 0 0 0 0 0 0 0 0 0 0 0 0 0 0 0 0 0 0 0 0 0 0 0 0 0 0 0 0 0 0 0 0 0 0 0 0 10
0 0 0 0 0 0 0 0 0 0 0 0 0 0 0 0 0 0 0 0 0 0 0 0 0 0 0 0 0 0 0 0 0 0 0 0 0 0 0 0 0 0 0 0 0 0 0 2 0
0 0 0 0 0 0 0 0 0 0 0 0 0 0 0 0 0 0 0 0 0 0 0 0 0 0 0 0 0 0 0 0 0 0 0 0 0 0 0 0 0 0 0 0 0 0 0 0 13
11 1 0 0 0 0 0 0 0 0 0 0 0 0 0 0 0 0 0 0 0 0 0 0 0 0 0 0 0 0 0 0 0 0 0 0 0 0 0 0 0 0 0 0 0 0 0 0 0
5 0 0 0 0 0 0 0 0 0 0 0 0 0 0 0 0 0 0 0 0 0 0 0 0 0 0 0 0 0 0 0 0 0 0 0 0 0 0 0 0 0 0 0 0 0 0 0 0
0 10 0 0 0 0 0 0 0 0 0 13 19 12 3 5 4 0 0 0 0 0 0 0 0 0 0 0 0 0 0 0 0 0 0 0 0 0 0 0 0 0 0 0 0 0 0 0 0

GFSSGP_con_mucape_117.txt.gz
CAPE
0 0 0 0 0 0 0 0 0 0 27 110 23 97 178 511 318 481 1075 1290 1247 1611 1683 1209 1822 1967 1917 1741 1736 1782 1800 1865 1905 1837 1715 1672 1721 1736 1707 1699 1645 1231 650 198 193 243 354 362 465
0 0 0 0 0 0 2 0 0 0 0 195 453 657 635 790 1142 1252 1125 1394 1310 1629 1440 1146 1776 1926 1854 1669 1521 1520 1647 1729 1724 1700 1682 1682 1653 1622 1491 1501 1310 812 448 101 246 361 457 389 456
0 0 0 0 0 0 4 1 0 0 0 49 207 366 607 604 1314 923 908 1429 1383 1625 1370 1384 1828 1837 1776 1484 1457 1424 1436 1493 1578 1612 1648 1644 1606 1550 1491 1476 1407 744 241 153 346 560 680 495 394
0 0 0 0 0 6 7 18 0 0 0 0 8 542 758 1034 986 1023 1448 1386 1378 1511 1295 1727 1836 1819 1717 1600 1506 1392 1348 1401 1508 1571 1584 1565 1518 1472 1479 1461 1332 818 216 234 438 850 871 849 636
0 0 0 0 3 16 36 36 0 0 0 0 309 614 866 1417 1683 1914 1617 1378 1272 1499 1263 1461 1794 1795 1707 1580 1427 1362 1340 1324 1417 1489 1484 1460 1407 1354 1395 1339 969 762 601 439 512 831 1132 1120 1045
9 2 0 1 15 23 44 69 15 0 0 0 320 837 914 1709 2027 2015 1633 1432 1237 1539 1449 1161 1676 1726 1624 1595 1435 1271 1222 1283 1340 1346 1363 1422 1356 1285 1253 1183 866 694 634 632 649 827 929 935 842
1 0 0 0 9 31 31 67 24 0 0 0 417 754 608 1754 1921 1977 1739 1461 1396 1490 1541 1198 988 1348 1686 1590 1442 1246 1175 1245 1346 1383 1428 1493 1456 1375 1320 1172 834 611 572 521 586 700 814 746 683
0 0 0 0 1 15 5 35 0 0 0 0 92 582 516 1480 1992 1867 1681 1411 1340 1474 1384 1188 1020 673 679 992 1576 1374 1269 1249 1249 1302 1365 1366 1335 1240 1098 888 810 510 367 317 377 415 432 408 370
0 0 0 0 0 3 0 0 1 0 0 0 168 192 44 1687 1558 1632 1540 1329 1297 1340 1442 1220 777 827 620 619 1049 1356 1264 1357 1324 1217 1310 820 186 379 446 419 594 751 622 364 292 270 249 241 245
0 0 0 0 0 0 0 0 2 0 0 2 2 564 1187 1396 1356 1349 1216 1117 1047 1185 1347 1317 1051 909 733 471 877 881 762 704 674 662 823 518 533 506 308 467 844 685 782 796 535 416 371 191 0
0 0 0 0 0 0 0 0 0 3 0 0 0 413 1508 1532 1257 992 839 663 669 909 1236 1319 1482 1325 894 545 937 1023 952 1128 1197 1133 1208 1070 873 826 693 635 598 678 687 370 421 342 204 75 28
14 0 0 9 10 2 4 0 0 0 0 0 0 100 1055 1600 1636 1256 1033 914 885 956 1163 1374 1569 1685 1433 1013 1056 1052 1017 1272 1238 1180 1375 1227 1117 1036 994 963 854 893 588 510 465 274 290 282 205
8 0 0 1 1 1 1 3 0 0 0 0 0 33 258 882 1504 1504 1489 1318 1128 1025 1094 1330 1644 1799 1788 1872 1482 1438 1351 1397 1380 1360 1372 1347 1108 1076 1021 1082 1131 1096 1004 871 755 558 448 304 234
0 0 0 0 1 0 0 5 3 0 0 0 0 0 0 0 0 117 427 1606 1713 1626 1315 1248 1592 1907 1932 1921 2057 1836 1827 1621 1625 1547 1276 1104 1300 1468 1200 1237 1159 1143 1158 1142 1113 994 885 638 460
0 0 0 0 0 0 2 0 0 0 0 0 0 0 0 0 0 0 0 12 1402 1937 2116 1846 1522 1786 2039 1968 2081 1882 1802 1685 1655 1520 1254 1154 1190 1382 1625 1537 1493 1432 1435 1408 1336 1236 1130 925 765
0 0 0 0 0 0 0 0 0 0 0 0 0 0 0 0 0 0 0 0 0 95 1439 2113 1625 1574 1813 1875 1967 1851 1723 1748 1677 1451 1348 1333 1467 1564 1892 1784 1662 1595 1485 1336 1304 1260 1160 1126 1023
0 0 0 0 0 0 0 0 0 0 0 0 0 0 0 0 0 0 0 0 0 0 0 702 1868 1816 1881 1835 1681 1803 1799 1769 1659 1740 1795 1745 1822 1789 2112 1852 1871 2008 1726 1563 1352 1402 1247 1256 1189
0 0 0 0 0 0 0 0 0 0 0 0 0 0 0 0 0 0 0 0 0 0 0 203 766 1582 1764 1656 1674 1759 1693 1684 1576 1456 1466 1468 1421 1372 1804 1912 1982 1847 1710 1720 1708 1591 1514 1256 1236
0 0 0 0 0 0 0 0 0 0 0 0 0 0 0 0 0 0 0 0 0 0 0 233 1049 1385 1410 1339 1552 1726 1735 1844 1969 2018 1991 1871 1889 1579 1587 1652 1692 1737 1708 1775 1750 1631 1499 1555 1418
0 0 0 0 0 0 0 0 0 0 0 0 0 0 0 0 0 0 0 0 0 0 190 668 1357 1458 1229 1257 1394 1160 1242 1419 1624 1553 993 715 695 775 914 1062 906 991 1012 1460 1593 1459 1628 1473 1567
0 0 0 0 0 0 0 0 0 0 0 0 0 0 0 0 0 0 0 0 0 0 356 915 1488 1536 1414 1088 895 867 544 613 691 666 566 441 182 265 422 393 487 708 890 726 1124 1119 1254 1290 1266
0 0 0 0 0 0 0 0 0 0 0 0 0 0 0 0 0 0 0 0 0 0 228 910 1221 1392 860 781 995 907 868 789 622 425 252 72 130 191 294 325 456 597 500 817 749 621 983 1292 1263
0 0 0 0 0 0 0 0 0 0 0 0 0 0 0 0 0 0 0 0 0 0 74 467 623 676 872 1055 1150 1057 855 656 325 124 62 119 222 254 198 384 445 506 417 649 790 846 916 993 1201
0 0 0 0 0 0 0 0 0 0 0 0 0 0 0 0 0 0 0 0 0 0 0 216 415 870 1252 1465 1303 964 496 151 80 23 52 64 136 239 258 191 257 240 109 135 100 283 645 642 433
0 0 0 0 0 0 0 0 0 0 0 0 0 0 0 0 0 0 0 0 0 0 0 68 468 825 964 832 476 236 244 176 210 73 59 84 101 127 200 151 99 15 0 0 0 0 11 145 235
0 0 0 0 0 0 0 0 0 0 0 0 0 0 0 0 0 0 0 0 0 0 0 19 213 290 257 93 53 50 47 2 2 92 28 25 38 95 205 95 26 0 0 0 0 0 0 37 72
0 0 0 0 0 0 0 0 0 0 0 0 0 0 0 0 0 0 0 0 0 0 0 0 0 2 21 19 28 10 3 0 5 66 194 77 192 53 172 99 38 0 0 0 0 0 0 25 65
0 0 0 0 0 0 0 0 0 0 0 0 0 0 0 0 0 0 0 0 0 0 0 0 0 0 0 0 0 0 0 0 0 35 113 91 133 176 73 113 52 1 0 0 0 0 12 33 13
0 0 0 0 0 0 0 0 0 0 0 0 0 0 0 0 0 0 0 0 0 0 0 0 0 0 0 0 0 0 0 0 0 0 0 5 25 77 110 106 41 15 0 0 3 0 0 1 11
11 0 1 0 0 0 0 0 0 0 0 0 0 0 0 3 2 1 0 0 0 0 0 0 0 0 0 0 0 0 0 0 0 0 0 0 0 0 0 1 2 14 17 23 29 1 0 0 0

GFSSGP_con_mucape_123.txt.gz
CAPE
0 0 0 0 0 0 0 0 65 21 0 0 0 12 453 144 1171 1917 1890 459 684 1727 1969 1553 2333 2362 2450 2634 2393 2037 1755 1575 1647 1725 1752 1812 1855 1894 1921 2027 1791 1086 716 666 418 343 341 166 145
0 0 0 0 0 0 0 27 69 20 2 0 0 158 305 1336 1686 1398 1016 496 1016 1705 1788 1480 2200 2381 2524 2562 2332 2013 1837 1808 1795 1779 1838 1873 1912 1830 1680 1759 1418 878 311 228 248 321 428 374 252
0 0 0 0 0 0 46 39 87 35 0 0 16 560 693 1490 1533 1678 1104 806 1388 1527 1416 1863 2224 2245 2317 2338 2272 2142 2025 1930 1834 1855 1903 1915 1874 1804 1790 1613 1108 634 144 86 206 400 341 410 450
0 0 0 0 0 0 0 37 66 30 0 0 0 532 1309 1239 898 1118 851 822 1126 1130 1225 1720 2093 2089 2181 2161 2219 2160 2063 1972 1932 1937 1902 1870 1717 1683 1672 1271 911 518 110 161 374 536 438 345 392
0 0 0 0 0 0 25 73 28 4 0 0 0 412 1513 1782 1484 1063 785 799 902 916 1585 1228 2033 1986 2049 2024 2019 2107 2066 1958 1930 1946 1884 1786 1669 1583 1464 1072 906 482 120 242 539 669 548 469 421
0 0 0 0 0 0 72 80 37 5 5 0 6 237 1477 2039 1450 1253 819 726 815 1087 1722 995 1838 1904 1818 1934 1946 1907 1858 1851 1853 1827 1807 1735 1582 1451 1228 972 817 490 215 363 571 733 674 614 551
0 0 0 0 0 31 31 17 46 7 2 0 1 166 1899 1983 1635 1476 1073 852 1009 1198 1377 929 748 1322 1697 1680 1620 1612 1595 1629 1646 1620 1627 1593 1478 1386 1162 908 678 415 256 331 531 693 676 569 483
0 0 0 0 0 10 81 15 38 2 7 2 19 282 1838 2172 1912 1717 1226 1004 1149 1090 1293 940 605 522 450 468 1527 1444 1369 1447 1433 1460 1477 1425 1324 1101 1029 1074 718 340 272 252 430 551 568 525 569
0 0 0 0 0 2 5 7 0 0 0 0 0 506 2019 2533 2066 1847 1485 1239 1184 926 1210 830 580 462 361 284 626 1168 1016 1178 1303 1184 1352 785 24 182 746 309 988 754 391 449 518 608 662 683 549
0 15 0 0 0 0 6 0 0 0 0 0 0 168 2146 2407 2004 1758 1630 1347 1137 957 937 780 612 633 482 354 774 244 112 89 50 26 319 28 12 500 81 599 1012 825 643 606 630 600 469 173 0
0 0 1 13 0 0 0 1 0 0 2 0 3 88 1274 1904 1778 1399 1325 1143 1102 1042 934 866 898 1404 605 444 1031 372 350 149 97 91 798 431 24 52 9 205 303 142 437 92 159 76 24 0 0
29 0 2 13 14 0 0 0 0 0 0 0 0 14 630 1475 1649 1341 1182 1068 1100 1046 1024 1123 1113 1509 1693 715 864 700 650 655 653 593 1510 1287 582 957 357 92 194 478 177 300 225 180 250 117 81
82 20 1 8 6 1 0 0 0 0 0 0 0 0 228 1092 1265 1254 977 964 921 924 1014 1156 1617 2166 2617 1987 990 1125 1215 967 1175 1271 1573 1604 1406 2049 1367 1323 783 705 679 689 837 675 838 616 654
145 56 22 2 5 0 0 0 0 0 0 0 0 0 0 975 1220 1219 1191 1111 1226 1355 1507 1473 1759 3263 2384 2606 3043 1855 1743 1553 1313 1390 1493 1980 1927 2972 1541 1708 1476 1355 1056 931 944 1238 1370 1477 1526
145 16 0 0 12 0 25 0 0 0 0 0 0 0 0 0 657 1291 1389 1600 1651 1748 1837 1964 2213 3007 3584 2945 2591 2352 1775 1557 1528 1469 2182 2185 2591 2852 2689 1429 1370 1137 1687 1422 1422 1414 1515 1301 1294
149 24 3 0 0 2 0 0 5 1 3 0 0 0 0 0 0 15 143 1677 1974 1683 1896 2228 1821 2341 3326 3699 3031 2469 2116 2164 1956 2319 1905 2090 2261 2357 2742 1766 1692 1974 2485 2019 1935 1832 1665 1636 1621
238 18 16 5 50 52 1 0 0 0 0 0 0 0 0 0 0 0 0 0 14 173 626 1230 2071 1577 3177 4075 3309 3359 3860 2684 2699 3041 2643 2436 2052 2049 2154 1879 2452 3210 2073 1809 1719 1750 2176 2054 1883
104 117 45 20 123 58 0 0 0 0 0 0 0 0 0 0 0 0 0 0 0 0 43 946 1641 2994 3727 3236 3323 2854 2618 3145 2703 3555 2479 2005 2055 1981 2251 2265 2425 2456 2376 1626 1547 2805 1766 2067 1768
108 8 53 26 26 0 0 0 0 0 0 0 0 0 0 0 0 0 0 0 0 0 313 989 1057 3465 2543 1999 2105 2121 1874 2081 2159 2137 2704 2011 2140 2142 3199 2600 2937 2605 2475 2313 2168 2176 2858 1724 1634
14 25 8 0 0 0 0 0 0 0 0 0 0 0 0 0 0 0 0 0 0 4 254 784 1319 2336 2831 1933 2534 1453 1546 1271 1477 1830 2811 2128 2193 2728 2790 2859 2452 2979 1515 2190 1725 1911 1344 795 808
0 7 1 0 0 0 0 2 0 0 0 0 0 0 0 0 0 0 0 0 0 0 221 396 1503 2716 2992 2905 2124 2187 2318 2610 1866 2564 2839 2771 2494 2228 2664 2299 1722 888 845 138 1877 976 1199 606 560
0 0 1 0 3 0 0 0 0 0 0 0 0 0 0 0 2 0 0 0 0 0 0 7 941 2426 2770 3431 2446 3822 2286 1674 1424 2094 2817 2990 2130 1737 1113 519 371 665 341 491 338 275 735 557 321
0 4 0 13 19 19 2 0 0 0 0 0 0 0 0 0 0 2 0 0 0 0 0 45 1050 2243 2920 3509 3687 2846 3147 1198 1725 2115 3425 2348 1514 431 160 318 424 510 286 470 317 282 845 373 291
0 15 3 5 25 2 1 0 0 0 0 0 0 0 0 0 0 0 0 2 8 3 0 21 600 1670 2148 2553 2889 3097 3899 3267 1566 1901 1116 467 300 224 391 161 433 401 345 139 95 473 484 821 443
0 45 35 9 0 0 1 5 0 9 0 0 0 0 0 0 0 0 0 1 11 18 62 88 373 1198 1784 2291 2148 2316 2814 3561 2170 1816 587 466 130 104 863 706 751 297 481 112 454 605 485 347 218
1 9 12 0 0 0 4 1 3 38 0 0 2 0 0 0 0 0 0 22 0 77 144 164 336 955 1360 1576 1734 1990 2094 1791 1051 932 312 75 46 187 1739 743 532 360 212 525 693 113 41 384 133
24 1 1 32 70 63 13 72 48 0 0 0 0 0 0 0 0 3 31 134 291 362 413 381 497 774 1021 1251 1649 1651 1321 1191 476 748 325 88 256 17 119 480 660 446 557 622 873 102 521 389 417
9 3 32 9 43 32 18 23 38 0 1 0 13 7 0 0 0 0 0 36 119 226 224 223 277 288 233 226 248 259 272 202 236 282 365 419 467 193 208 151 719 746 697 827 1032 306 388 587 216
8 19 5 55 81 123 103 79 175 45 20 53 31 12 0 0 0 0 0 0 0 0 2 7 6 0 0 2 8 7 16 16 33 77 109 128 221 345 384 382 298 356 967 1193 1214 1103 736 602 583
32 37 23 62 64 54 127 112 72 95 84 115 28 3 1 0 0 0 0 0 0 0 0 0 0 0 0 0 0 0 0 1 7 42 55 90 142 175 199 194 202 215 339 902 1109 803 658 671 567